{"data":{"norad_id":58103,"intl_designator":"2023-161G","name":"STARLINK-30589","alt_names":[],"object_type":"PAYLOAD","status":"ACTIVE","operator":null,"country":"US","launch_date":"2023-10-21","launch_site_code":"AFWTR","launch_vehicle":null,"mission":null,"orbit_class":"UNKNOWN","rcs_meters":null,"size_class":null,"mass_kg":null,"dimensions":null,"purposes":["comms"],"wikipedia_slug":null,"has_3d_model":false,"image_url":null,"decayed_at":null,"tle_current":{"epoch":"2026-09-20T12:08:35.098656Z","epoch_age_seconds":139907,"freshness":"FRESH","line1":"1 58103U 23161G   26263.50596179  .00001683  00000+0  60946-4 0  9997","line2":"2 58103  53.1617 339.3924 0001190  87.4385 272.6754 15.34399355164260","mean_motion":15.34399355,"eccentricity":0.000119,"inclination_deg":53.1617,"raan_deg":339.3924,"arg_perigee_deg":87.4385,"mean_anomaly_deg":272.6754,"bstar":6.0946e-5,"rev_number":16426,"period_min":93.847797531171,"perigee_km":461.89109706699,"apogee_km":463.51921750042,"semimajor_km":6840.8421572837,"source":"CELESTRAK","updated_at":"2026-09-21T09:00:33.787301Z"}}}